• In Hungary
  • List of Countries
  • For 7 days
  • Water Temperature
  • Satellite Maps
  • Weather Map
  • News
  • Weather Widgets
  • user-avatar
    Login

    Hourly Weather Ibarra

    Today, 15 October, Monday

    Time Temperature Precipitation Wind Pressure Humidity
    00:00 +13°C° 0 mm 1 mps 570 mmHg 86%
    01:00 +13°C° 0 mm 1 mps 570 mmHg 85%
    02:00 +13°C° 0 mm 1 mps 570 mmHg 85%
    03:00 +13°C° 0 mm 1 mps 569 mmHg 85%
    04:00 +12°C° 0 mm 1 mps 569 mmHg 85%
    05:00 +13°C° 0 mm 1 mps 570 mmHg 83%
    06:00 +14°C° 0 mm 2 mps 570 mmHg 80%
    07:00 +14°C° 0 mm 2 mps 570 mmHg 77%
    08:00 +16°C° 0 mm 2 mps 571 mmHg 71%
    09:00 +18°C° 0 mm 2 mps 572 mmHg 65%
    10:00 +20°C° 0 mm 3 mps 573 mmHg 59%
    11:00 +20°C° 0.1 mm 3 mps 573 mmHg 59%
    12:00 +21°C° 0.1 mm 3 mps 572 mmHg 58%
    13:00 +21°C° 0.1 mm 3 mps 572 mmHg 58%
    14:00 +20°C° 0.1 mm 2 mps 571 mmHg 61%
    15:00 +20°C° 0.1 mm 2 mps 571 mmHg 63%
    16:00 +19°C° 0.1 mm 2 mps 570 mmHg 66%
    17:00 +18°C° 0.1 mm 2 mps 570 mmHg 74%
    18:00 +16°C° 0.1 mm 1 mps 569 mmHg 81%
    19:00 +15°C° 0.1 mm 1 mps 569 mmHg 89%
    20:00 +14°C° 0.1 mm 1 mps 569 mmHg 89%
    21:00 +14°C° 0.1 mm 1 mps 570 mmHg 89%
    22:00 +14°C° 0.1 mm 1 mps 570 mmHg 89%
    23:00 +13°C° 0.1 mm 1 mps 570 mmHg 89%

    Tomorrow, 16 October, Tuesday

    Time Temperature Precipitation Wind Pressure Humidity
    00:00 +13°C° 0.1 mm 1 mps 569 mmHg 89%
    01:00 +13°C° 0.1 mm 1 mps 569 mmHg 89%
    02:00 +13°C° 0.1 mm 1 mps 569 mmHg 89%
    03:00 +13°C° 0.1 mm 1 mps 568 mmHg 89%
    04:00 +13°C° 0.1 mm 1 mps 568 mmHg 89%
    05:00 +13°C° 0 mm 1 mps 569 mmHg 86%
    06:00 +14°C° 0 mm 1 mps 569 mmHg 82%
    07:00 +15°C° 0 mm 1 mps 570 mmHg 78%
    08:00 +16°C° 0 mm 1 mps 571 mmHg 73%
    09:00 +18°C° 0 mm 2 mps 571 mmHg 68%
    10:00 +19°C° 0 mm 2 mps 572 mmHg 63%
    11:00 +19°C° 0.1 mm 2 mps 572 mmHg 63%
    12:00 +19°C° 0.1 mm 2 mps 571 mmHg 64%
    13:00 +20°C° 0.1 mm 2 mps 571 mmHg 65%
    14:00 +19°C° 0.4 mm 2 mps 570 mmHg 68%
    15:00 +19°C° 0.4 mm 1 mps 569 mmHg 72%
    16:00 +19°C° 0.4 mm 1 mps 569 mmHg 75%
    17:00 +16°C° 0.4 mm 1 mps 568 mmHg 81%
    18:00 +15°C° 0.4 mm 1 mps 568 mmHg 86%
    19:00 +13°C° 0.4 mm 0 mps 568 mmHg 91%
    20:00 +13°C° 0.1 mm 0 mps 569 mmHg 91%
    21:00 +13°C° 0.1 mm 0 mps 569 mmHg 91%
    22:00 +14°C° 0.1 mm 1 mps 569 mmHg 90%
    23:00 +14°C° 0.1 mm 1 mps 569 mmHg 90%

    Day after tomorrow, 17 October, Wednesday

    Time Temperature Precipitation Wind Pressure Humidity
    00:00 +14°C° 0.1 mm 1 mps 569 mmHg 90%
    01:00 +13°C° 0.1 mm 1 mps 569 mmHg 89%
    02:00 +12°C° 0.1 mm 0 mps 568 mmHg 89%
    03:00 +12°C° 0.1 mm 0 mps 568 mmHg 89%
    04:00 +12°C° 0.1 mm 0 mps 568 mmHg 89%
    05:00 +13°C° 0.1 mm 0 mps 568 mmHg 86%
    06:00 +14°C° 0.1 mm 1 mps 569 mmHg 83%
    07:00 +15°C° 0.1 mm 1 mps 569 mmHg 80%
    08:00 +18°C° 0.1 mm 1 mps 570 mmHg 75%
    09:00 +19°C° 0.1 mm 1 mps 571 mmHg 69%
    10:00 +20°C° 0.1 mm 2 mps 572 mmHg 63%
    11:00 +20°C° 0.5 mm 2 mps 572 mmHg 64%
    12:00 +20°C° 0.5 mm 2 mps 571 mmHg 64%
    13:00 +20°C° 0.5 mm 2 mps 571 mmHg 64%
    14:00 +19°C° 0.8 mm 2 mps 570 mmHg 68%
    15:00 +19°C° 0.8 mm 2 mps 569 mmHg 71%
    16:00 +19°C° 0.8 mm 1 mps 568 mmHg 74%
    17:00 +18°C° 0.6 mm 1 mps 568 mmHg 80%
    18:00 +16°C° 0.6 mm 1 mps 568 mmHg 86%
    19:00 +14°C° 0.6 mm 1 mps 568 mmHg 91%
    20:00 +14°C° 0.3 mm 1 mps 568 mmHg 91%
    21:00 +14°C° 0.3 mm 1 mps 569 mmHg 91%
    22:00 +14°C° 0.3 mm 1 mps 569 mmHg 91%
    23:00 +14°C° 0.6 mm 1 mps 569 mmHg 91%

    18 October, Thursday

    Time Temperature Precipitation Wind Pressure Humidity
    00:00 +13°C° 0.6 mm 1 mps 569 mmHg 92%
    01:00 +13°C° 0.6 mm 1 mps 568 mmHg 92%
    02:00 +12°C° 0.4 mm 0 mps 568 mmHg 92%
    03:00 +12°C° 0.4 mm 0 mps 568 mmHg 92%
    04:00 +12°C° 0.4 mm 0 mps 567 mmHg 92%
    05:00 +14°C° 0.1 mm 1 mps 568 mmHg 88%
    06:00 +14°C° 0.1 mm 1 mps 569 mmHg 84%
    07:00 +15°C° 0.1 mm 1 mps 569 mmHg 81%
    08:00 +18°C° 0.1 mm 1 mps 570 mmHg 74%
    09:00 +18°C° 0.1 mm 2 mps 571 mmHg 67%
    10:00 +20°C° 0.1 mm 2 mps 572 mmHg 61%
    11:00 +20°C° 0.4 mm 2 mps 572 mmHg 60%
    12:00 +20°C° 0.4 mm 2 mps 571 mmHg 60%
    13:00 +20°C° 0.4 mm 2 mps 571 mmHg 60%
    14:00 +20°C° 0.5 mm 2 mps 570 mmHg 62%
    15:00 +19°C° 0.5 mm 2 mps 569 mmHg 64%
    16:00 +19°C° 0.5 mm 2 mps 569 mmHg 65%
    17:00 +18°C° 0.3 mm 1 mps 569 mmHg 73%
    18:00 +16°C° 0.3 mm 1 mps 568 mmHg 80%
    19:00 +14°C° 0.3 mm 1 mps 568 mmHg 87%
    20:00 +14°C° 0.2 mm 1 mps 569 mmHg 87%
    21:00 +13°C° 0.2 mm 1 mps 569 mmHg 87%
    22:00 +13°C° 0.2 mm 1 mps 569 mmHg 87%
    23:00 +13°C° 0.2 mm 1 mps 569 mmHg 88%

    19 October, Friday

    Time Temperature Precipitation Wind Pressure Humidity
    00:00 +13°C° 0.2 mm 1 mps 569 mmHg 88%
    01:00 +13°C° 0.2 mm 1 mps 568 mmHg 89%
    02:00 +13°C° 0.1 mm 1 mps 568 mmHg 89%
    03:00 +12°C° 0.1 mm 0 mps 568 mmHg 88%
    04:00 +12°C° 0.1 mm 0 mps 568 mmHg 88%
    05:00 +13°C° 0.2 mm 0 mps 568 mmHg 84%
    06:00 +13°C° 0.2 mm 0 mps 569 mmHg 81%
    07:00 +14°C° 0.2 mm 0 mps 570 mmHg 77%
    08:00 +16°C° 0.1 mm 1 mps 571 mmHg 71%
    09:00 +19°C° 0.1 mm 1 mps 572 mmHg 65%
    10:00 +19°C° 0.1 mm 2 mps 573 mmHg 59%
    11:00 +19°C° 0.6 mm 2 mps 572 mmHg 61%
    12:00 +19°C° 0.6 mm 2 mps 571 mmHg 62%
    13:00 +20°C° 0.6 mm 2 mps 570 mmHg 64%
    14:00 +19°C° 1 mm 2 mps 570 mmHg 68%
    15:00 +19°C° 1 mm 1 mps 569 mmHg 71%
    16:00 +18°C° 1 mm 1 mps 569 mmHg 75%
    17:00 +16°C° 1.2 mm 1 mps 569 mmHg 80%
    18:00 +15°C° 1.2 mm 1 mps 569 mmHg 85%
    19:00 +15°C° 1.2 mm 1 mps 569 mmHg 90%
    20:00 +14°C° 0.9 mm 1 mps 569 mmHg 90%
    21:00 +14°C° 0.9 mm 1 mps 569 mmHg 90%
    22:00 +14°C° 0.9 mm 1 mps 569 mmHg 90%
    23:00 +14°C° 0.7 mm 1 mps 569 mmHg 90%

    20 October, Saturday

    Time Temperature Precipitation Wind Pressure Humidity
    00:00 +14°C° 0.7 mm 1 mps 569 mmHg 90%
    01:00 +14°C° 0.7 mm 1 mps 568 mmHg 90%
    02:00 +14°C° 0.7 mm 1 mps 568 mmHg 89%
    03:00 +13°C° 0.7 mm 0 mps 568 mmHg 89%
    04:00 +13°C° 0.7 mm 0 mps 568 mmHg 89%
    05:00 +13°C° 0.5 mm 0 mps 568 mmHg 87%
    06:00 +14°C° 0.5 mm 0 mps 569 mmHg 84%
    07:00 +14°C° 0.5 mm 0 mps 570 mmHg 82%
    08:00 +16°C° 0.3 mm 1 mps 570 mmHg 78%
    09:00 +18°C° 0.3 mm 1 mps 571 mmHg 73%
    10:00 +19°C° 0.3 mm 1 mps 571 mmHg 69%
    11:00 +19°C° 0.4 mm 1 mps 571 mmHg 69%
    12:00 +19°C° 0.4 mm 1 mps 570 mmHg 69%
    13:00 +20°C° 0.4 mm 1 mps 570 mmHg 69%
    14:00 +19°C° 1.1 mm 1 mps 569 mmHg 71%
    15:00 +19°C° 1.1 mm 1 mps 569 mmHg 74%
    16:00 +18°C° 1.1 mm 1 mps 568 mmHg 76%
    17:00 +16°C° 0.8 mm 1 mps 568 mmHg 81%
    18:00 +16°C° 0.8 mm 1 mps 568 mmHg 85%
    19:00 +14°C° 0.8 mm 0 mps 568 mmHg 90%
    20:00 +15°C° 0.4 mm 1 mps 569 mmHg 90%
    21:00 +14°C° 0.4 mm 1 mps 569 mmHg 90%
    22:00 +14°C° 0.4 mm 1 mps 569 mmHg 91%
    23:00 +14°C° 0.3 mm 1 mps 569 mmHg 91%
    Show more